Back to catalog

CZ-6A DEB

AlivePO
NORAD 56667·DEBRIS·🇨🇳 China

Launched Nov 11, 2022 from Taiyuan Satellite Launch Center

Loading…

Next Passes (next 24 hours)

TLE

FreshSource: Space-Track

Epoch: Sep 14, 2026, 04:53 UTC

1 56667U 22151AGT 26257.20361619  .00001448  00000-0  31810-3 0  9994
2 56667  98.8076 350.6545 0105848  49.2960 311.7372 14.55821911184738

Track CZ-6A DEB in real time with AllMySat

Download on the App Store